Date,TemperatureHighF,TemperatureAvgF,TemperatureLowF,DewpointHighF,DewpointAvgF,DewpointLowF,HumidityHigh,HumidityAvg,HumidityLow,PressureMaxIn,PressureMinIn,WindSpeedMaxMPH,WindSpeedAvgMPH,GustSpeedMaxMPH,PrecipitationSumIn
2013-1-1,36,36,36,21,21,21,54,54,54,29.95,29.95,0,0,1,0.00
2013-1-2,36,36,36,21,21,21,54,54,54,29.95,29.95,0,0,1,0.00
2013-1-3,36,36,36,21,21,21,54,54,54,29.95,29.95,0,0,1,0.00
2013-1-4,36,36,36,21,21,21,54,54,54,29.95,29.95,0,0,1,0.00
2013-1-5,36,36,36,21,21,21,54,54,54,29.95,29.95,0,0,1,0.00
2013-1-6,36,36,36,21,21,21,54,54,54,29.95,29.95,0,0,1,0.00
2013-1-7,36,36,36,21,21,21,54,54,54,29.95,29.95,0,0,1,0.00
2013-1-8,36,36,36,21,21,21,54,54,54,29.95,29.95,0,0,1,0.00
2013-1-9,36,36,36,21,21,21,54,54,54,29.95,29.95,0,0,1,0.00
2013-1-10,36,36,36,21,21,21,54,54,54,29.95,29.95,0,0,1,0.00
2013-1-11,36,36,36,21,21,21,54,54,54,29.95,29.95,0,0,1,0.00
2013-1-12,36,36,36,21,21,21,54,54,54,29.95,29.95,0,0,0,0.00
2013-1-13,36,36,36,21,21,21,54,54,54,29.95,29.95,0,0,0,0.00
2013-1-14,36,36,36,21,21,21,54,54,54,29.95,29.95,0,0,0,0.00
2013-1-15,37,36,35,29,22,21,78,56,54,30.19,29.95,2,0,8,0.01
2013-1-16,35,33,32,32,31,29,93,90,79,30.15,29.77,3,0,8,0.00
2013-1-17,43,39,34,34,30,28,93,69,56,30.02,29.87,6,2,15,0.00
2013-1-18,42,42,42,28,28,28,56,56,56,29.98,29.98,3,3,6,0.00
2013-1-19,42,42,42,28,28,28,56,56,56,29.98,29.98,3,3,6,0.00
2013-1-20,42,42,42,28,28,28,56,56,56,29.98,29.98,3,3,6,0.00
2013-1-21,42,42,42,28,28,28,56,56,56,29.98,29.98,3,3,6,0.00
2013-1-22,42,42,42,28,28,28,56,56,56,29.98,29.98,3,3,6,0.00
2013-1-23,42,42,42,28,28,28,56,56,56,29.98,29.98,3,3,6,0.00
2013-1-24,42,42,42,28,28,28,56,56,56,29.98,29.98,3,3,6,0.00
2013-1-25,42,30,15,28,15,-4,67,55,29,30.16,29.98,3,1,7,0.00
2013-1-26,32,20,12,6,3,-4,68,49,25,30.32,29.99,9,3,17,0.00
2013-1-27,40,24,14,12,5,-1,56,44,22,30.47,30.32,7,1,14,0.00
2013-1-28,33,30,24,31,22,7,90,73,47,30.43,29.95,3,0,7,0.04
2013-1-29,53,43,33,46,39,30,97,87,71,30.09,29.95,6,1,10,0.01
2013-1-30,66,52,41,60,50,40,98,93,78,30.02,29.30,7,2,17,0.00
2013-1-31,62,45,28,60,32,7,97,65,28,29.75,29.00,13,4,30,0.00
2013-2-1,32,26,22,14,8,-2,58,45,23,30.18,29.74,12,3,24,0.00
2013-2-2,32,23,16,17,4,-4,74,47,25,30.24,29.92,7,1,12,0.02
2013-2-3,35,26,22,20,16,12,76,66,49,29.98,29.74,5,1,11,0.01
2013-2-4,33,26,20,16,8,1,70,47,28,29.93,29.76,8,2,17,0.01
2013-2-5,32,29,26,26,22,12,85,73,56,29.91,29.83,5,1,14,0.00
2013-2-6,40,32,26,26,20,6,87,64,40,30.29,29.86,8,2,15,0.00
2013-2-7,35,29,22,16,10,5,55,45,33,30.43,30.24,6,2,13,0.00
2013-2-8,36,32,29,30,26,16,89,79,56,30.24,29.60,12,6,21,0.01
2013-2-9,35,28,20,28,13,0,90,56,25,30.29,29.71,15,5,24,0.00
2013-2-10,46,27,16,18,8,1,60,45,22,30.42,30.25,8,2,17,0.00
2013-2-11,41,36,30,40,32,17,97,85,58,30.26,29.61,3,0,6,0.00
2013-2-12,45,39,32,38,26,20,97,59,43,29.93,29.69,10,3,20,0.00
2013-2-13,51,36,29,30,24,19,83,62,40,29.90,29.62,5,1,7,0.00
2013-2-14,52,38,31,34,28,21,89,68,35,29.95,29.65,5,1,10,0.00
2013-2-15,60,42,31,35,28,23,84,60,33,29.96,29.85,7,1,16,0.00
2013-2-16,40,35,21,32,22,3,85,61,39,30.15,29.71,8,3,15,0.00
2013-2-17,34,26,18,8,-2,-11,41,29,21,29.97,29.65,15,7,30,0.00
2013-2-18,40,25,15,10,-1,-9,45,32,21,30.20,29.97,10,4,20,0.00
2013-2-19,45,35,26,39,25,7,94,68,41,30.13,29.65,10,1,22,0.00
2013-2-20,35,29,24,25,11,3,65,47,32,29.94,29.69,13,4,22,0.00
2013-2-21,39,28,23,13,8,5,53,43,29,30.23,29.93,12,5,30,0.00
2013-2-22,38,30,22,26,18,9,72,59,48,30.33,30.20,6,2,11,0.00
2013-2-23,40,37,34,39,35,26,95,90,72,30.20,29.75,8,3,15,0.00
2013-2-24,47,38,32,38,29,18,94,71,52,29.94,29.70,12,3,20,0.00
2013-2-25,44,37,29,28,24,11,71,59,48,30.18,29.92,9,2,15,0.00
2013-2-26,46,38,31,32,27,6,86,66,35,30.22,29.71,13,5,26,0.00
2013-2-27,51,43,18,49,40,-7,95,88,32,30.00,29.45,15,6,27,0.00
2013-2-28,48,38,32,33,28,27,84,69,50,29.63,29.51,6,1,9,0.00
2013-3-1,45,40,34,30,26,21,80,58,47,29.75,29.64,9,4,17,0.00
2013-3-2,41,34,30,25,20,17,67,57,48,29.75,29.66,9,4,17,0.00
2013-3-3,42,32,28,28,16,12,94,51,37,30.16,29.63,10,5,21,0.00
2013-3-4,46,34,27,20,15,5,58,46,27,29.88,29.73,12,6,22,0.00
2013-3-5,59,40,30,34,22,17,78,49,26,29.97,29.77,10,3,17,0.00
2013-3-6,43,39,35,34,29,24,79,68,51,29.91,29.76,15,8,30,0.00
2013-3-7,44,37,33,33,26,22,82,65,53,30.04,29.88,10,6,24,0.00
2013-3-8,43,35,30,34,28,12,88,75,46,30.18,29.96,9,3,20,0.00
2013-3-9,68,45,32,26,19,10,61,39,15,30.26,30.12,7,3,13,0.00
2013-3-10,64,42,33,38,31,18,86,65,35,30.32,30.22,5,2,10,0.00
2013-3-11,59,46,37,48,41,34,98,84,54,30.26,30.02,5,2,8,0.00
2013-3-12,57,52,44,57,50,38,99,92,59,30.02,29.62,8,3,18,0.00
2013-3-13,56,44,36,38,29,20,84,57,27,29.85,29.75,7,3,17,0.00
2013-3-14,46,35,30,20,10,-1,54,36,20,29.92,29.80,13,5,29,0.00
2013-3-15,46,37,26,30,18,4,58,46,30,29.94,29.67,9,3,17,0.00
2013-3-16,43,36,33,30,26,20,82,68,51,29.86,29.72,6,1,11,0.00
2013-3-17,39,33,29,29,19,12,83,57,35,30.24,29.86,7,3,15,0.00
2013-3-18,37,31,26,30,18,7,90,61,42,30.33,29.92,10,4,17,0.00
2013-3-19,52,39,33,39,31,14,97,78,35,29.91,29.64,13,4,29,0.00
2013-3-20,49,38,30,21,16,9,59,42,22,29.84,29.70,9,3,17,0.00
2013-3-21,44,36,28,26,13,3,77,41,22,29.78,29.58,12,3,16,0.00
2013-3-22,43,35,25,20,16,9,57,45,30,29.84,29.69,9,3,21,0.00
2013-3-23,51,38,30,22,17,0,63,45,21,29.89,29.77,13,4,23,0.00
2013-3-24,52,40,29,25,19,15,61,44,26,29.90,29.64,12,2,21,0.00
2013-3-25,40,38,34,35,30,25,93,73,57,29.64,29.42,9,2,17,0.00
2013-3-26,54,42,34,34,29,22,87,63,31,29.83,29.56,9,2,18,0.00
2013-3-27,56,42,32,32,26,16,70,55,22,29.95,29.82,9,2,17,0.00
2013-3-28,52,42,32,31,28,25,77,58,39,30.07,29.92,9,3,17,0.00
2013-3-29,58,46,36,30,27,22,67,49,27,30.11,30.02,10,3,20,0.00
2013-3-30,66,47,35,33,24,14,73,46,16,30.13,30.01,8,2,14,0.00
2013-3-31,59,47,37,45,33,19,97,62,31,30.07,29.64,7,2,14,0.00
2013-4-1,64,48,27,49,35,4,99,68,25,30.31,29.59,10,3,22,0.00
2013-4-2,48,37,29,17,10,5,55,34,20,30.03,29.87,9,3,20,0.00
2013-4-3,50,38,28,15,10,1,52,33,19,30.25,30.03,12,4,23,0.00
2013-4-4,61,42,28,25,17,6,57,38,21,30.33,30.02,7,2,14,0.00
2013-4-5,68,50,40,32,24,16,70,42,14,30.02,29.68,13,3,24,0.00
2013-4-6,62,45,33,28,16,7,60,34,17,30.24,29.96,10,3,17,0.00
2013-4-7,70,50,37,45,34,25,78,56,25,30.24,29.93,10,2,18,0.00
2013-4-8,82,63,49,49,44,36,84,56,19,30.03,29.93,6,1,12,0.00
2013-4-9,87,71,58,55,46,31,80,46,14,29.94,29.86,12,2,21,0.00
2013-4-10,89,68,59,60,54,47,99,62,32,29.91,29.76,13,2,21,0.00
2013-4-11,61,57,48,60,52,44,99,87,71,29.97,29.74,9,3,15,0.00
2013-4-12,49,44,40,44,42,33,99,95,76,29.94,29.66,15,6,24,0.00
2013-4-13,63,51,39,46,39,34,99,68,35,29.95,29.70,6,2,13,0.00
2013-4-14,66,53,45,42,34,24,81,51,23,30.14,29.92,9,2,18,0.00
2013-4-15,69,53,44,41,35,30,72,51,29,30.31,30.15,7,2,12,0.00
2013-4-16,74,60,48,57,50,41,91,72,50,30.31,30.06,6,2,14,0.00
2013-4-17,78,63,55,58,46,24,96,62,15,30.19,30.07,7,2,13,0.00
2013-4-19,81,72,58,66,64,57,98,76,55,29.84,29.58,8,3,17,0.00
2013-4-20,63,53,46,57,37,24,99,60,24,30.26,29.66,8,3,20,0.00
2013-4-21,66,48,35,30,23,18,58,40,17,30.56,30.26,8,3,15,0.00
2013-4-22,61,48,37,42,33,27,78,58,31,30.58,30.29,8,3,17,0.00
2013-4-23,51,45,40,43,38,33,86,75,66,30.42,30.07,8,3,15,0.00
2013-4-24,44,43,42,40,39,39,88,87,86,30.08,30.00,3,1,5,0.00
2013-4-25,72,56,46,37,28,16,58,37,12,30.35,30.10,9,2,14,0.00
2013-4-26,72,63,54,37,24,16,46,24,12,30.35,30.29,8,2,10,0.00
2013-4-27,76,60,45,36,30,19,59,36,13,30.39,30.23,6,1,10,0.00
2013-4-28,76,60,45,44,37,29,73,45,24,30.27,30.14,6,1,13,0.00
2013-4-29,58,54,51,53,50,41,99,89,54,30.19,30.11,5,1,8,0.00
2013-4-30,75,58,50,54,42,22,99,64,18,30.28,30.14,7,2,13,0.00
2013-5-1,77,58,44,45,37,22,76,49,16,30.43,30.28,6,2,13,0.00
2013-5-2,81,62,45,48,44,39,92,57,24,30.42,30.28,3,1,8,0.00
2013-5-3,77,60,49,46,41,31,80,53,24,30.40,30.06,7,2,13,0.00
2013-5-4,79,58,45,48,44,40,92,64,26,30.33,30.17,5,1,13,0.00
2013-5-5,75,55,45,46,43,40,89,67,31,30.24,30.16,5,1,13,0.00
2013-5-6,76,58,46,55,50,43,92,75,46,30.21,30.10,5,1,8,0.00
2013-5-7,80,62,50,60,55,49,98,78,49,30.13,30.03,5,1,8,0.00
2013-5-8,69,62,57,66,61,56,99,94,84,30.04,29.90,6,2,13,0.00
2013-5-9,70,61,55,62,57,54,99,88,65,29.95,29.85,3,0,8,0.00
2013-5-10,83,69,56,63,59,55,99,73,42,29.97,29.85,3,0,6,0.00
2013-5-11,73,65,61,67,64,54,99,96,65,29.89,29.68,5,0,15,0.00
2013-5-12,71,60,50,60,45,25,99,64,23,29.91,29.65,7,2,16,0.00
2013-5-13,58,49,41,39,32,25,83,54,32,30.07,29.91,8,1,14,0.00
2013-5-14,63,51,38,36,30,19,85,49,19,30.10,29.98,7,1,10,0.00
2013-5-15,75,61,48,60,49,34,89,67,46,30.03,29.65,3,0,7,0.00
2013-5-16,84,71,60,62,56,45,88,62,39,29.81,29.68,2,0,6,0.00
2013-5-17,75,66,57,46,43,39,62,44,29,30.15,29.82,5,1,9,0.00
2013-5-18,66,60,56,58,52,44,91,78,53,30.26,30.16,2,0,4,0.00
2013-5-19,60,58,55,59,57,54,99,98,90,30.25,30.13,3,1,7,0.00
2013-5-20,79,67,57,71,64,57,99,91,71,30.14,29.93,2,0,6,0.00
2013-5-21,90,75,64,74,69,64,99,83,55,29.95,29.82,3,0,7,0.00
2013-5-22,83,74,67,75,70,65,99,87,66,29.90,29.79,2,0,6,0.00
2013-5-23,80,72,68,74,70,68,99,94,75,29.86,29.71,3,0,7,0.00
2013-5-24,68,54,44,67,53,42,99,95,82,29.96,29.67,7,2,15,0.00
2013-5-25,58,50,43,51,42,36,98,75,48,29.99,29.89,13,3,28,0.00
2013-5-26,71,58,46,42,37,28,83,50,24,30.17,29.96,8,2,18,0.00
2013-5-27,79,62,46,46,41,33,78,48,23,30.22,30.09,3,0,8,0.00
2013-5-28,62,58,54,58,53,46,99,86,60,30.18,30.08,2,0,5,0.00
2013-5-29,86,71,58,74,65,57,99,83,58,30.09,29.97,3,0,8,0.00
2013-5-30,97,80,68,72,68,45,95,68,36,30.11,30.03,3,0,8,0.00
2013-5-31,94,82,70,74,68,63,90,65,41,30.10,29.95,2,0,8,0.00
2013-6-1,97,81,69,73,68,64,94,68,43,30.00,29.87,3,1,9,0.00
2013-6-2,92,80,72,73,70,68,91,73,51,29.89,29.75,3,1,9,0.00
2013-6-3,85,73,67,73,67,52,99,82,54,29.86,29.77,5,1,8,0.00
2013-6-4,78,68,57,54,47,43,71,49,31,30.09,29.86,5,2,13,0.00
2013-6-5,81,67,54,54,47,40,80,50,31,30.18,30.07,3,1,8,0.00
2013-6-6,76,64,57,62,58,54,99,84,49,30.11,29.96,3,1,6,0.18
2013-6-7,63,61,60,62,61,60,99,98,97,29.96,29.57,6,2,17,3.86
2013-6-8,75,66,58,71,63,51,99,89,59,30.03,29.57,6,1,12,0.48
2013-6-9,85,72,60,65,62,59,99,73,46,30.15,30.03,2,0,8,0.00
2013-6-10,69,66,64,68,65,47,99,95,47,30.12,29.77,5,1,15,1.25
2013-6-11,82,73,68,71,68,63,99,84,66,29.77,29.61,5,1,11,0.02
2013-6-12,84,72,64,64,59,55,86,67,41,29.82,29.70,7,1,15,0.00
2013-6-13,66,63,57,64,61,57,99,94,76,29.82,29.40,6,2,13,1.31
2013-6-14,79,60,54,68,57,52,99,89,64,29.91,29.50,5,1,13,0.38
2013-6-15,81,69,57,64,59,56,99,72,44,29.99,29.87,5,1,9,0.00
2013-6-16,82,71,60,67,62,56,93,75,51,29.97,29.76,5,1,14,0.00
2013-6-17,90,74,66,71,67,65,98,82,47,29.90,29.81,3,0,9,0.01
2013-6-18,84,72,64,72,68,63,99,88,63,29.88,29.77,2,0,7,0.20
2013-6-19,81,69,60,63,56,48,98,68,35,30.14,29.85,3,1,8,0.00
2013-6-20,86,71,58,63,59,55,91,67,40,30.24,30.12,3,0,7,0.00
2013-6-21,90,72,60,64,58,54,85,63,37,30.27,29.92,5,0,8,0.00
2013-6-22,89,75,61,68,63,54,85,67,48,30.24,30.08,2,0,8,0.00
2013-6-23,93,78,66,73,69,64,92,76,48,30.17,30.02,5,0,8,0.21
2013-6-24,96,80,70,75,71,62,98,79,46,30.05,29.93,3,0,8,0.06
2013-6-25,97,78,68,78,71,67,98,82,43,29.98,29.80,6,0,12,0.21
2013-6-26,87,78,70,73,70,67,94,79,58,29.84,29.75,3,0,7,0.00
2013-6-27,92,79,71,76,72,69,97,83,54,29.80,29.52,3,1,8,1.59
2013-6-28,87,77,71,74,71,67,99,84,61,29.54,29.45,3,1,8,0.01
2013-6-29,90,77,68,72,68,66,98,77,47,29.67,29.46,3,0,8,0.00
2013-6-30,85,76,71,78,73,67,99,90,75,29.88,29.67,2,0,5,0.06
2013-7-1,76,74,69,76,74,24,99,97,15,30.01,29.86,2,0,8,1.04
2013-7-2,86,77,71,79,74,70,99,92,78,30.15,29.92,2,0,7,0.01
2013-7-3,86,78,71,78,74,70,99,91,69,30.22,30.14,3,0,7,0.09
2013-7-4,92,81,66,78,75,62,99,84,61,30.23,30.13,3,0,8,0.01
2013-7-5,96,83,73,78,74,66,99,77,50,30.20,30.06,2,0,8,0.00
2013-7-6,98,82,75,78,75,73,96,79,46,30.13,30.00,2,0,8,0.00
2013-7-7,98,84,73,78,75,72,97,76,49,30.05,29.91,6,0,14,0.07
2013-7-8,94,78,69,75,71,69,99,81,49,30.03,29.95,3,0,8,0.01
2013-7-9,87,76,70,76,72,68,96,87,63,30.06,29.97,3,0,8,0.07
2013-7-10,85,77,72,77,74,71,99,91,72,30.00,29.79,48,0,48,0.19
2013-7-11,83,78,75,76,72,64,96,82,65,29.90,29.78,3,1,6,0.00
2013-7-12,78,74,70,71,68,64,98,84,74,30.05,29.90,5,2,8,0.33
2013-7-13,82,73,68,78,72,67,99,97,85,30.26,30.05,10,1,18,0.35
2013-7-14,92,80,74,79,75,72,99,85,60,30.32,30.21,3,0,7,0.00
2013-7-15,97,83,73,79,74,71,98,78,50,30.24,30.11,3,0,8,0.00
2013-7-16,97,84,75,74,71,68,86,67,42,30.19,30.11,3,1,8,0.00
2013-7-17,97,85,76,76,72,70,86,68,45,30.17,30.03,3,0,6,0.00
2013-7-18,101,87,77,78,75,71,89,70,42,30.06,29.94,3,0,6,0.00
2013-7-19,101,87,78,81,77,74,95,74,48,29.95,29.78,3,1,10,0.00
2013-7-20,94,83,75,78,74,70,96,77,54,29.83,29.71,3,1,11,0.07
2013-7-21,90,80,73,77,71,68,98,76,50,29.96,29.81,3,0,6,0.00
2013-7-22,91,77,73,80,73,67,99,86,62,29.97,29.77,2,0,10,0.51
2013-7-23,88,77,72,77,74,71,99,90,65,29.77,29.55,2,0,7,0.54
2013-7-24,80,74,66,74,67,56,97,78,57,29.91,29.60,6,1,11,0.00
2013-7-25,68,65,63,61,57,53,85,74,68,30.02,29.90,3,1,8,0.00
2013-7-26,86,73,65,66,62,60,88,71,48,30.03,29.97,3,1,8,0.00
2013-7-27,88,74,64,70,65,62,97,75,46,30.03,29.90,2,0,6,0.00
2013-7-28,79,72,68,75,69,64,99,92,80,29.95,29.85,3,0,8,2.32
2013-7-29,86,73,66,71,65,56,99,79,43,30.09,29.92,3,0,8,0.01
2013-7-30,83,71,62,63,60,56,87,68,46,30.16,30.08,3,0,9,0.00
2013-7-31,83,73,62,66,62,58,90,71,51,30.14,30.00,2,0,5,0.00
2013-8-1,70,69,66,69,67,62,99,95,86,30.03,29.81,2,0,8,0.81
2013-8-2,69,69,69,69,69,69,99,99,99,29.82,29.82,0,0,0,0.00
2013-8-3,69,69,69,69,69,69,99,99,99,29.82,29.82,0,0,0,0.00
2013-8-4,69,69,69,69,69,69,99,99,99,29.82,29.82,0,0,0,0.00
2013-8-5,69,69,69,69,69,69,99,99,99,29.82,29.82,0,0,0,0.00
2013-8-6,69,69,69,69,69,69,99,99,99,29.82,29.82,0,0,0,0.00
2013-8-7,69,69,69,69,69,69,99,99,99,29.82,29.82,0,0,0,0.00
2013-8-8,69,69,69,69,69,69,99,99,99,29.82,29.82,0,0,0,0.00
2013-8-9,69,69,69,69,69,69,99,99,99,29.82,29.82,0,0,0,0.00
2013-8-10,69,69,69,69,69,69,99,99,99,29.82,29.82,0,0,0,0.00
2013-8-11,69,69,69,69,69,69,99,99,99,29.82,29.82,0,0,0,0.00
2013-8-12,69,69,69,69,69,69,99,99,99,29.82,29.82,0,0,0,0.00
2013-8-13,69,69,69,69,69,69,99,99,99,29.82,29.82,0,0,0,0.00
2013-8-14,69,69,69,69,69,69,99,99,99,29.82,29.82,0,0,0,0.00
2013-8-15,69,69,69,69,69,69,99,99,99,29.82,29.82,0,0,0,0.00
2013-8-16,69,69,69,69,69,69,99,99,99,29.82,29.82,0,0,0,0.00
2013-8-17,69,69,69,69,69,69,99,99,99,29.82,29.82,0,0,0,0.00
2013-8-18,69,69,69,69,69,69,99,99,99,29.82,29.82,0,0,0,0.00
2013-8-19,69,69,69,69,69,69,99,99,99,29.82,29.82,0,0,0,0.00
2013-8-20,69,69,69,69,69,69,99,99,99,29.82,29.82,0,0,0,0.00
2013-8-21,69,69,69,69,69,69,99,99,99,29.82,29.82,0,0,0,0.00
2013-8-22,69,69,69,69,69,69,99,99,99,29.82,29.82,0,0,0,0.00
2013-8-23,69,69,69,69,69,69,99,99,99,29.82,29.82,0,0,0,0.00
2013-8-24,69,69,69,69,69,69,99,99,99,29.82,29.82,0,0,0,0.00
2013-8-25,69,69,69,69,69,69,99,99,99,29.82,29.82,0,0,0,0.00
2013-8-26,69,69,69,69,69,69,99,99,99,29.82,29.82,0,0,0,0.00
2013-8-27,69,69,69,69,69,69,99,99,99,29.82,29.82,0,0,0,0.00
2013-8-28,69,69,69,69,69,69,99,99,99,29.82,29.82,0,0,0,0.00
2013-8-29,69,69,69,69,69,69,99,99,99,29.82,29.82,0,0,0,0.00
2013-8-30,69,69,69,69,69,69,99,99,99,29.82,29.82,0,0,0,0.00
2013-8-31,69,69,69,69,69,69,99,99,99,29.82,29.82,0,0,0,0.00
2013-9-1,69,69,69,69,69,69,99,99,99,29.82,29.82,0,0,0,0.00
2013-9-2,69,69,69,69,69,69,99,99,99,29.82,29.82,0,0,0,0.00
2013-9-3,69,69,69,69,69,69,99,99,99,29.82,29.82,0,0,0,0.00
2013-9-4,69,69,69,69,69,69,99,99,99,29.82,29.82,0,0,0,0.00
2013-9-5,69,69,69,69,69,69,99,99,99,29.82,29.82,0,0,0,0.00
2013-9-6,69,69,69,69,69,69,99,99,99,29.82,29.82,0,0,0,0.00
2013-9-7,69,69,69,69,69,69,99,99,99,29.82,29.82,0,0,0,0.00
2013-9-8,69,69,69,69,69,69,99,99,99,29.82,29.82,0,0,0,0.00
2013-9-9,69,69,69,69,69,69,99,99,99,29.82,29.82,0,0,0,0.00
2013-9-10,69,69,69,69,69,69,99,99,99,29.82,29.82,0,0,0,0.00
2013-9-11,69,69,69,69,69,69,99,99,99,29.82,29.82,0,0,0,0.00
2013-9-12,69,69,69,69,69,69,99,99,99,29.82,29.82,0,0,0,0.00
2013-9-13,69,69,69,69,69,69,99,99,99,29.82,29.82,0,0,0,0.00
2013-9-14,69,69,69,69,69,69,99,99,99,29.82,29.82,0,0,0,0.00
2013-9-15,69,69,69,69,69,69,99,99,99,29.82,29.82,0,0,0,0.00
2013-9-16,69,69,69,69,69,69,99,99,99,29.82,29.82,0,0,0,0.00
2013-9-17,69,69,69,69,69,69,99,99,99,29.82,29.82,0,0,0,0.00
2013-9-18,69,69,69,69,69,69,99,99,99,29.82,29.82,0,0,0,0.00
2013-9-19,69,69,69,69,69,69,99,99,99,29.82,29.82,0,0,0,0.00
2013-9-20,69,69,69,69,69,69,99,99,99,29.82,29.82,0,0,0,0.00
2013-9-21,69,69,69,69,69,69,99,99,99,29.82,29.82,0,0,0,0.00
2013-9-22,69,69,69,69,69,69,99,99,99,29.82,29.82,0,0,0,0.00
2013-9-23,69,69,69,69,69,69,99,99,99,29.82,29.82,0,0,0,0.00
2013-9-24,69,69,69,69,69,69,99,99,99,29.82,29.82,0,0,0,0.00
2013-9-25,69,69,69,69,69,69,99,99,99,29.82,29.82,0,0,0,0.00
2013-9-26,69,69,69,69,69,69,99,99,99,29.82,29.82,0,0,0,0.00
2013-9-27,69,69,69,69,69,69,99,99,99,29.82,29.82,0,0,0,0.00
2013-9-28,69,69,69,69,69,69,99,99,99,29.82,29.82,0,0,0,0.00
2013-9-29,69,69,69,69,69,69,99,99,99,29.82,29.82,0,0,0,0.00
2013-9-30,69,69,69,69,69,69,99,99,99,29.82,29.82,0,0,0,0.00
2013-10-1,69,69,69,69,69,69,99,99,99,29.82,29.82,0,0,0,0.00
2013-10-2,69,69,69,69,69,69,99,99,99,29.82,29.82,0,0,0,0.00
2013-10-3,69,69,69,69,69,69,99,99,99,29.82,29.82,0,0,0,0.00
2013-10-4,69,69,69,69,69,69,99,99,99,29.82,29.82,0,0,0,0.00
2013-10-5,69,69,69,69,69,69,99,99,99,29.82,29.82,0,0,0,0.00
2013-10-6,69,69,69,69,69,69,99,99,99,29.82,29.82,0,0,0,0.00
2013-10-7,69,69,69,69,69,69,99,99,99,29.82,29.82,0,0,0,0.00
2013-10-8,69,69,69,69,69,69,99,99,99,29.82,29.82,0,0,0,0.00
2013-10-9,69,69,69,69,69,69,99,99,99,29.82,29.82,0,0,0,0.00
2013-10-10,69,69,69,69,69,69,99,99,99,29.82,29.82,0,0,0,0.00
2013-10-11,69,69,69,69,69,69,99,99,99,29.82,29.82,0,0,0,0.00
2013-10-12,69,69,69,69,69,69,99,99,99,29.82,29.82,0,0,0,0.00
2013-10-13,69,69,69,69,69,69,99,99,99,29.82,29.82,0,0,0,0.00
2013-10-14,69,69,69,69,69,69,99,99,99,29.82,29.82,0,0,0,0.00
2013-10-15,69,69,69,69,69,69,99,99,99,29.82,29.82,0,0,0,0.00
2013-10-16,69,69,69,69,69,69,99,99,99,29.82,29.82,0,0,0,0.00
2013-10-17,69,69,69,69,69,69,99,99,99,29.82,29.82,0,0,0,0.00
2013-10-18,69,69,69,69,69,69,99,99,99,29.82,29.82,0,0,0,0.00
2013-10-19,69,69,69,69,69,69,99,99,99,29.82,29.82,0,0,0,0.00
2013-10-20,69,69,69,69,69,69,99,99,99,29.82,29.82,0,0,0,0.00
2013-10-21,69,69,69,69,69,69,99,99,99,29.82,29.82,0,0,0,0.00
2013-10-22,69,69,69,69,69,69,99,99,99,29.82,29.82,0,0,0,0.00
2013-10-23,69,69,69,69,69,69,99,99,99,29.82,29.82,0,0,0,0.00
2013-10-24,69,69,69,69,69,69,99,99,99,29.82,29.82,0,0,0,0.00
2013-10-25,69,69,69,69,69,69,99,99,99,29.82,29.82,0,0,0,0.00
2013-10-26,69,69,69,69,69,69,99,99,99,29.82,29.82,0,0,0,0.00
2013-10-27,69,69,69,69,69,69,99,99,99,29.82,29.82,0,0,0,0.00
2013-10-28,69,69,69,69,69,69,99,99,99,29.82,29.82,0,0,0,0.00
2013-10-29,69,69,69,69,69,69,99,99,99,29.82,29.82,0,0,0,0.00
2013-10-30,69,69,69,69,69,69,99,99,99,29.82,29.82,0,0,0,0.00
2013-10-31,69,69,69,69,69,69,99,99,99,29.82,29.82,0,0,0,0.00
2013-11-1,69,69,69,69,69,69,99,99,99,29.82,29.82,0,0,0,0.00
2013-11-2,69,69,69,69,69,69,99,99,99,29.82,29.82,0,0,0,0.00
2013-11-3,69,69,69,69,69,69,99,99,99,29.82,29.82,0,0,0,0.00
2013-11-4,69,69,69,69,69,69,99,99,99,29.82,29.82,0,0,0,0.00
2013-11-5,69,69,69,69,69,69,99,99,99,29.82,29.82,0,0,0,0.00
2013-11-6,69,69,69,69,69,69,99,99,99,29.82,29.82,0,0,0,0.00
2013-11-7,69,69,69,69,69,69,99,99,99,29.82,29.82,0,0,0,0.00
2013-11-8,69,69,69,69,69,69,99,99,99,29.82,29.82,0,0,0,0.00
2013-11-9,69,69,69,69,69,69,99,99,99,29.82,29.82,0,0,0,0.00
2013-11-10,69,69,69,69,69,69,99,99,99,29.82,29.82,0,0,0,0.00
2013-11-11,69,69,69,69,69,69,99,99,99,29.82,29.82,0,0,0,0.00
2013-11-12,69,69,69,69,69,69,99,99,99,29.82,29.82,0,0,0,0.00
2013-11-13,69,69,69,69,69,69,99,99,99,29.82,29.82,0,0,0,0.00
2013-11-14,69,69,69,69,69,69,99,99,99,29.82,29.82,0,0,0,0.00
2013-11-15,69,69,69,69,69,69,99,99,99,29.82,29.82,0,0,0,0.00
2013-11-16,69,69,69,69,69,69,99,99,99,29.82,29.82,0,0,0,0.00
2013-11-17,69,69,69,69,69,69,99,99,99,29.82,29.82,0,0,0,0.00
2013-11-18,69,69,69,69,69,69,99,99,99,29.82,29.82,0,0,0,0.00
2013-11-19,69,69,69,69,69,69,99,99,99,29.82,29.82,0,0,0,0.00
2013-11-20,69,69,69,69,69,69,99,99,99,29.82,29.82,0,0,0,0.00
2013-11-21,69,69,69,69,69,69,99,99,99,29.82,29.82,0,0,0,0.00
2013-11-22,69,69,69,69,69,69,99,99,99,29.82,29.82,0,0,0,0.00
2013-11-23,69,69,69,69,69,69,99,99,99,29.82,29.82,0,0,0,0.00
2013-11-24,69,69,69,69,69,69,99,99,99,29.82,29.82,0,0,0,0.00
2013-11-25,69,69,69,69,69,69,99,99,99,29.82,29.82,0,0,0,0.00
2013-11-26,69,69,69,69,69,69,99,99,99,29.82,29.82,0,0,0,0.00
2013-11-27,69,69,69,69,69,69,99,99,99,29.82,29.82,0,0,0,0.00
2013-11-28,69,69,69,69,69,69,99,99,99,29.82,29.82,0,0,0,0.00
2013-11-29,69,66,27,69,65,14,99,96,57,30.67,29.82,3,0,8,0.00
2013-11-30,38,30,22,25,17,9,71,58,48,30.68,30.32,6,2,13,0.00
2013-12-1,53,39,32,35,30,24,85,71,46,30.31,30.02,3,0,7,0.00
2013-12-2,51,41,36,35,31,27,81,69,50,30.02,29.88,3,0,6,0.00
2013-12-3,58,43,36,40,35,31,97,75,43,30.01,29.88,3,1,7,0.00
2013-12-4,52,44,37,44,39,33,89,82,67,30.13,30.01,5,1,7,0.00
2013-12-5,56,51,45,56,50,44,99,96,86,30.12,29.95,5,1,7,0.04
2013-12-6,58,46,37,58,46,36,99,98,94,30.17,29.88,8,2,15,0.83
2013-12-7,40,35,29,36,28,18,97,77,55,30.51,30.09,9,3,18,0.04
2013-12-8,86,29,26,68,19,12,91,66,54,30.58,30.34,6,2,11,0.00
2013-12-9,35,33,29,34,32,27,98,95,91,30.34,29.97,6,0,12,0.14
2013-12-10,33,30,20,33,28,16,99,94,75,30.22,29.89,1,0,7,0.00
2013-12-11,36,25,19,20,16,14,84,69,45,30.33,30.11,1,0,2,0.00
2013-12-12,30,22,15,14,6,0,65,49,32,30.35,30.09,8,1,17,0.00
2013-12-13,36,25,14,16,10,2,65,54,41,30.33,30.12,6,1,14,0.00
2013-12-14,33,25,20,31,17,15,94,72,59,30.45,29.58,13,5,23,0.01
2013-12-15,39,32,26,34,27,19,94,81,61,29.84,29.52,1,0,8,0.04
2013-12-16,32,25,20,21,9,2,71,51,32,30.21,29.83,0,0,7,0.00
2013-12-17,27,23,19,24,15,8,90,73,56,30.20,29.92,2,0,8,0.04
2013-12-18,37,26,17,25,17,11,81,68,50,30.17,29.59,1,0,3,0.08
2013-12-19,43,32,22,28,22,14,76,65,54,30.18,30.02,0,0,3,0.06
2013-12-20,50,41,34,39,30,24,85,64,52,30.11,29.97,0,0,3,0.17
2013-12-21,60,50,43,54,45,35,96,84,65,30.02,29.81,1,0,3,0.00
2013-12-22,68,62,54,63,58,51,98,88,77,29.99,29.80,3,0,16,0.00
2013-12-23,59,54,39,59,52,30,99,93,70,30.17,29.91,2,0,9,0.56
2013-12-24,40,34,24,30,20,5,78,58,43,30.35,30.11,7,0,17,0.01
2013-12-25,30,24,17,13,5,0,63,44,33,30.51,30.34,2,0,10,0.00
2013-12-26,36,28,23,26,19,11,74,67,53,30.41,30.17,1,0,6,0.00
2013-12-27,44,31,24,23,18,15,71,60,44,30.35,29.98,1,0,6,0.00
2013-12-28,56,39,28,30,23,17,68,53,30,30.29,30.04,1,0,10,0.00
2013-12-29,42,40,36,40,33,26,96,77,56,30.08,29.46,6,0,13,0.91
2013-12-30,44,34,22,39,25,7,96,71,48,30.18,29.72,3,0,13,0.00
2013-12-31,30,25,18,23,10,5,75,55,44,30.32,30.06,1,0,15,0.00
2014-1-1,33,27,20,18,13,6,64,55,48,30.40,30.14,5,0,9,0.00
2014-1-2,30,25,16,19,16,10,79,68,59,30.20,29.65,6,1,15,0.00